Weather History for Hobbs, NM

Change the Weather History Date:

Wednesday, February 27, 2013

  Actual Average Record
Temperature  
Mean Temperature 37 °F -  
Max Temperature 48 °F 59 °F 78 °F (2006)
Min Temperature 26 °F 33 °F 19 °F (2002)
Degree Days  
Heating Degree Days 28    
Moisture  
Dew Point 20 °F    
Average Humidity 54    
Maximum Humidity 80    
Minimum Humidity 22    
Precipitation  
Precipitation 0.00 in - - ()
Sea Level Pressure  
Sea Level Pressure 30.21 in    
Wind  
Wind Speed 10 mph (North)    
Max Wind Speed 28 mph    
Max Gust Speed 32 mph    
Visibility 10 miles    
Events      
Averages and records for this station are not official NWS values.
T = Trace of Precipitation, MM = Missing Value Source: NWS Daily Summary

Daily Weather History Graph

Daily Weather History Graph

Search for Another Location

Airport:

Trip Planner

Search our weather history database for the weather conditions in past years. The results will help you decide how hot, cold, wet, or windy it might be!

Date:

Astronomy

Feb. 27, 2013 Rise Set
Actual Time 6:22 AM MST 5:48 PM MST
Civil Twilight 5:57 AM MST 6:13 PM MST
Nautical Twilight 5:29 AM MST 6:42 PM MST
Astronomical Twilight 5:00 AM MST 7:10 PM MST
Moon 8:01 PM MST 7:08 AM MST
Length of Visible Light 12h 15m
Length of Day
11h 26m
Waning Gibbous, 96% of the Moon is Illuminated
Feb 27
Waning Gibbous
Mar 4
Last Quarter
Mar 11
New
Mar 19
First Quarter
Mar 27
Full

Hourly Weather History & Observations

Time (MST) Temp. Windchill Dew Point Humidity Pressure Visibility Wind Dir Wind Speed Gust Speed Precip Events Conditions
12:15 AM 33.8 °F 24.3 °F 23.0 °F 65% 30.03 in 10.0 mi NW 13.8 mph - N/A   Clear
12:35 AM 32.0 °F 22.5 °F 23.0 °F 69% 30.04 in 10.0 mi NW 12.7 mph - N/A   Clear
12:55 AM 32.0 °F 23.0 °F 23.0 °F 69% 30.05 in 10.0 mi NW 11.5 mph - N/A   Clear
1:15 AM 32.0 °F 23.0 °F 23.0 °F 69% 30.06 in 10.0 mi NW 11.5 mph - N/A   Clear
1:35 AM 32.0 °F 24.2 °F 23.0 °F 69% 30.06 in 10.0 mi NNW 9.2 mph - N/A   Clear
1:55 AM 32.0 °F 24.2 °F 24.8 °F 75% 30.07 in 10.0 mi NNW 9.2 mph - N/A   Clear
2:35 AM 32.0 °F 24.2 °F 24.8 °F 75% 30.09 in 10.0 mi NW 9.2 mph - N/A   Clear
2:55 AM 30.2 °F 21.3 °F 23.0 °F 75% 30.09 in 10.0 mi NW 10.4 mph - N/A   Clear
3:35 AM 28.4 °F - 23.0 °F 80% 30.10 in 10.0 mi Calm Calm - N/A   Clear
3:55 AM 28.4 °F - 23.0 °F 80% 30.11 in 10.0 mi Calm Calm - N/A   Clear
5:50 AM 32.0 °F 22.1 °F 23.0 °F 69% 30.17 in 10.0 mi NW 13.8 mph - N/A   Clear
7:48 AM 39.2 °F 27.8 °F 19.4 °F 45% 30.25 in 10.0 mi North 27.6 mph 32.2 mph N/A   Clear
7:50 AM 37.4 °F 26.6 °F 21.2 °F 52% 30.21 in 10.0 mi NNW 21.9 mph 28.8 mph N/A   Clear
9:50 AM 41.0 °F 30.9 °F 21.2 °F 45% 30.27 in 10.0 mi North 24.2 mph 28.8 mph N/A   Clear
10:50 AM 44.6 °F 36.4 °F 19.4 °F 37% 30.28 in 10.0 mi North 20.7 mph - N/A   Clear
11:50 AM 46.4 °F 38.7 °F 17.6 °F 32% 30.26 in 10.0 mi North 20.7 mph 27.6 mph N/A   Clear
12:50 PM 48.2 °F - 15.8 °F 27% 30.24 in 10.0 mi North 19.6 mph 28.8 mph N/A   Clear
1:50 PM 48.2 °F - 14.0 °F 25% 30.22 in 10.0 mi North 11.5 mph 18.4 mph N/A   Clear
2:50 PM 48.2 °F - 10.4 °F 22% 30.22 in 10.0 mi North 13.8 mph 20.7 mph N/A   Clear
4:50 PM 46.4 °F 40.7 °F 15.8 °F 29% 30.23 in 10.0 mi North 12.7 mph - N/A   Partly Cloudy
5:15 PM 44.6 °F 38.8 °F 15.8 °F 31% 30.23 in 10.0 mi NNE 11.5 mph - N/A   Clear
5:35 PM 44.6 °F 40.7 °F 15.8 °F 31% 30.24 in 10.0 mi NNE 6.9 mph - N/A   Clear
5:50 PM 42.8 °F 38.6 °F 17.6 °F 36% 30.24 in 10.0 mi NNE 6.9 mph - N/A   Clear
5:55 PM 41.0 °F 34.7 °F 17.6 °F 39% 30.24 in 10.0 mi NNE 10.4 mph - N/A   Clear
6:15 PM 39.2 °F - 17.6 °F 42% 30.25 in 10.0 mi Calm Calm - N/A   Clear
6:35 PM 39.2 °F - 19.4 °F 45% 30.26 in 10.0 mi Calm Calm - N/A   Clear
7:15 PM 37.4 °F - 19.4 °F 48% 30.27 in 10.0 mi Calm Calm - N/A   Clear
7:35 PM 37.4 °F 34.9 °F 19.4 °F 48% 30.27 in 10.0 mi NE 3.5 mph - N/A   Clear
7:55 PM 35.6 °F - 19.4 °F 52% 30.27 in 10.0 mi Calm Calm - N/A   Clear
8:15 PM 35.6 °F 32.8 °F 19.4 °F 52% 30.27 in 10.0 mi NE 3.5 mph - N/A   Clear
8:35 PM 35.6 °F - 19.4 °F 52% 30.28 in 10.0 mi Calm Calm - N/A   Clear
8:55 PM 33.8 °F - 19.4 °F 56% 30.28 in 10.0 mi Calm Calm - N/A   Clear
9:15 PM 32.0 °F - 19.4 °F 60% 30.29 in 10.0 mi Calm Calm - N/A   Clear
9:35 PM 32.0 °F - 19.4 °F 60% 30.28 in 10.0 mi Calm Calm - N/A   Clear
9:55 PM 32.0 °F - 21.2 °F 64% 30.29 in 10.0 mi Calm Calm - N/A   Clear
10:15 PM 32.0 °F - 21.2 °F 64% 30.29 in 10.0 mi Calm Calm - N/A   Clear
10:35 PM 32.0 °F - 21.2 °F 64% 30.29 in 10.0 mi Calm Calm - N/A   Clear
11:15 PM 26.6 °F - 19.4 °F 74% 30.29 in 10.0 mi Calm Calm - N/A   Clear
11:35 PM 28.4 °F - 19.4 °F 69% 30.28 in 10.0 mi Calm Calm - N/A   Clear
11:55 PM 28.4 °F - 19.4 °F 69% 30.28 in 10.0 mi Calm Calm - N/A   Clear